Weather History for Salem, IL

Change the Weather History Date:

Tuesday, May 14, 2013

  Actual Average Record
Temperature  
Mean Temperature 72 °F -  
Max Temperature 88 °F 74 °F 91 °F (1987)
Min Temperature 55 °F 52 °F 40 °F (1973)
Cooling Degree Days 6    
Growing Degree Days 22 (Base 50)    
Moisture  
Dew Point 55 °F    
Average Humidity 55    
Maximum Humidity 69    
Minimum Humidity 40    
Precipitation  
Precipitation 0.00 in - - ()
Sea Level Pressure  
Sea Level Pressure 29.93 in    
Wind  
Wind Speed 9 mph (South)    
Max Wind Speed 18 mph    
Max Gust Speed 25 mph    
Visibility 10 miles    
Events      
Averages and records for this station are not official NWS values.
T = Trace of Precipitation, MM = Missing Value Source: NWS Daily Summary

Daily Weather History Graph

Daily Weather History Graph

Search for Another Location

Airport:

Trip Planner

Search our weather history database for the weather conditions in past years. The results will help you decide how hot, cold, wet, or windy it might be!

Date:

Astronomy

May. 14, 2013 Rise Set
Actual Time 5:44 AM CDT 8:00 PM CDT
Civil Twilight 5:14 AM CDT 8:30 PM CDT
Nautical Twilight 4:38 AM CDT 9:06 PM CDT
Astronomical Twilight 3:58 AM CDT 9:47 PM CDT
Moon 9:24 AM CDT (5/14) 11:48 PM CDT (5/14)
Length of Visible Light 15h 15m
Length of Day
14h 15m
Waxing Crescent, 19% of the Moon is Illuminated
May 14
Waxing Crescent
May 17
First Quarter
May 24
Full
May 31
Last Quarter
Jun 8
New

Hourly Weather History & Observations

Time (CDT) Temp. Heat Index Dew Point Humidity Pressure Visibility Wind Dir Wind Speed Gust Speed Precip Events Conditions
12:15 AM 59.0 °F - 42.8 °F 55% 30.08 in 10.0 mi SSE 5.8 mph - N/A   Clear
12:35 AM 58.5 °F - 42.6 °F 56% 30.07 in 10.0 mi SSE 5.8 mph - N/A   Clear
12:55 AM 58.3 °F - 43.0 °F 57% 30.07 in 10.0 mi SSE 4.6 mph - N/A   Clear
1:15 AM 57.7 °F - 43.2 °F 58% 30.06 in 10.0 mi SE 5.8 mph - N/A   Clear
1:35 AM 57.4 °F - 43.2 °F 59% 30.06 in 10.0 mi SE 4.6 mph - N/A   Clear
1:55 AM 57.2 °F - 43.2 °F 59% 30.05 in 10.0 mi SSE 5.8 mph - N/A   Clear
2:15 AM 57.2 °F - 43.0 °F 59% 30.04 in 10.0 mi SE 4.6 mph - N/A   Clear
2:35 AM 56.5 °F - 43.3 °F 61% 30.04 in 10.0 mi SE 4.6 mph - N/A   Clear
2:55 AM 56.1 °F - 43.3 °F 62% 30.03 in 10.0 mi SE 4.6 mph - N/A   Clear
3:15 AM 55.6 °F - 43.7 °F 64% 30.03 in 10.0 mi SE 5.8 mph - N/A   Clear
3:35 AM 55.0 °F - 43.7 °F 66% 30.02 in 10.0 mi SE 5.8 mph - N/A   Clear
3:55 AM 55.2 °F - 43.7 °F 65% 30.01 in 10.0 mi SE 4.6 mph - N/A   Clear
4:15 AM 55.8 °F - 43.3 °F 63% 30.01 in 10.0 mi SE 4.6 mph - N/A   Clear
4:55 AM 56.3 °F - 43.5 °F 62% 30.00 in 10.0 mi SSE 5.8 mph - N/A   Clear
5:15 AM 56.3 °F - 43.7 °F 63% 30.00 in 10.0 mi SSE 5.8 mph - N/A   Clear
5:35 AM 56.5 °F - 44.1 °F 63% 30.00 in 10.0 mi SSE 5.8 mph - N/A   Clear
5:55 AM 56.5 °F - 44.6 °F 64% 30.00 in 10.0 mi SSE 6.9 mph - N/A   Clear
6:15 AM 56.7 °F - 45.1 °F 65% 29.99 in 10.0 mi SSE 5.8 mph - N/A   Clear
6:35 AM 57.4 °F - 46.0 °F 66% 29.99 in 10.0 mi SSE 5.8 mph - N/A   Clear
6:55 AM 58.3 °F - 47.1 °F 66% 29.99 in 10.0 mi South 6.9 mph - N/A   Clear
7:15 AM 59.5 °F - 48.4 °F 67% 29.98 in 10.0 mi South 8.1 mph - N/A   Clear
7:35 AM 61.2 °F - 50.4 °F 68% 29.98 in 10.0 mi South 11.5 mph - N/A   Clear
7:55 AM 62.1 °F - 51.6 °F 69% 29.98 in 10.0 mi South 11.5 mph - N/A   Clear
8:15 AM 63.3 °F - 52.5 °F 68% 29.98 in 10.0 mi South 10.4 mph - N/A   Clear
8:35 AM 64.6 °F - 53.4 °F 67% 29.96 in 10.0 mi South 10.4 mph - N/A   Clear
8:55 AM 66.6 °F - 54.7 °F 66% 29.96 in 10.0 mi South 11.5 mph - N/A   Clear
9:15 AM 68.5 °F - 55.8 °F 64% 29.96 in 10.0 mi South 11.5 mph - N/A   Clear
9:35 AM 70.3 °F - 56.7 °F 62% 29.95 in 10.0 mi SSW 11.5 mph - N/A   Clear
9:55 AM 72.1 °F - 57.2 °F 59% 29.94 in 10.0 mi SSW 13.8 mph - N/A   Clear
10:15 AM 73.4 °F - 56.8 °F 56% 29.93 in 10.0 mi SW 12.7 mph - N/A   Clear
10:35 AM 75.0 °F - 57.7 °F 55% 29.94 in 10.0 mi SSW 16.1 mph 19.6 mph N/A   Clear
10:55 AM 76.1 °F - 58.5 °F 54% 29.93 in 10.0 mi SSW 15.0 mph - N/A   Clear
11:15 AM 77.0 °F - 58.5 °F 53% 29.93 in 10.0 mi SSW 12.7 mph - N/A   Clear
11:35 AM 78.1 °F - 59.5 °F 53% 29.93 in 10.0 mi SSW 13.8 mph 23.0 mph N/A   Clear
11:55 AM 79.3 °F - 59.0 °F 50% 29.92 in 10.0 mi SW 12.7 mph 20.7 mph N/A   Clear
12:15 PM 80.8 °F 81.3 °F 59.5 °F 48% 29.92 in 10.0 mi SW 15.0 mph 19.6 mph N/A   Clear
12:35 PM 81.7 °F 82.2 °F 60.1 °F 48% 29.91 in 10.0 mi SW 15.0 mph 19.6 mph N/A   Clear
12:55 PM 82.4 °F 82.5 °F 59.2 °F 45% 29.90 in 10.0 mi SW 16.1 mph 21.9 mph N/A   Clear
1:15 PM 83.1 °F 83.0 °F 59.0 °F 44% 29.90 in 10.0 mi SW 15.0 mph 21.9 mph N/A   Clear
1:35 PM 83.8 °F 83.8 °F 59.5 °F 44% 29.89 in 10.0 mi SSW 16.1 mph 21.9 mph N/A   Clear
1:55 PM 84.6 °F 84.2 °F 59.0 °F 42% 29.88 in 10.0 mi SW 16.1 mph 24.2 mph N/A   Clear
2:15 PM 85.1 °F 85.0 °F 60.3 °F 43% 29.88 in 10.0 mi SSW 18.4 mph 24.2 mph N/A   Clear
2:35 PM 85.6 °F 85.4 °F 60.1 °F 42% 29.88 in 10.0 mi SSW 15.0 mph 24.2 mph N/A   Clear
2:55 PM 85.8 °F 86.1 °F 61.5 °F 44% 29.87 in 10.0 mi SSW 17.3 mph 25.3 mph N/A   Clear
3:15 PM 86.9 °F 87.0 °F 61.2 °F 42% 29.87 in 10.0 mi SW 17.3 mph 23.0 mph N/A   Clear
3:35 PM 87.4 °F 87.7 °F 61.9 °F 42% 29.86 in 10.0 mi SSW 16.1 mph - N/A   Clear
3:55 PM 88.0 °F 88.1 °F 61.5 °F 41% 29.86 in 10.0 mi SW 17.3 mph 20.7 mph N/A   Clear
4:15 PM 88.0 °F 88.1 °F 61.9 °F 41% 29.85 in 10.0 mi SW 13.8 mph - N/A   Clear
4:35 PM 88.5 °F 88.9 °F 61.9 °F 41% 29.85 in 10.0 mi SSW 11.5 mph - N/A   Clear
4:55 PM 88.9 °F 89.4 °F 62.4 °F 41% 29.85 in 10.0 mi SSW 11.5 mph - N/A   Clear
5:15 PM 88.9 °F 89.1 °F 61.3 °F 40% 29.84 in 10.0 mi SSW 17.3 mph - N/A   Clear
5:35 PM 88.7 °F 89.1 °F 62.4 °F 41% 29.84 in 10.0 mi SSW 13.8 mph - N/A   Clear
5:55 PM 88.7 °F 89.1 °F 62.1 °F 41% 29.83 in 10.0 mi SW 15.0 mph - N/A   Clear
6:15 PM 88.0 °F 88.1 °F 61.7 °F 41% 29.83 in 10.0 mi SSW 12.7 mph - N/A   Clear
6:35 PM 86.4 °F 87.3 °F 63.3 °F 46% 29.83 in 10.0 mi South 11.5 mph 19.6 mph N/A   Clear
6:55 PM 85.1 °F 86.4 °F 64.0 °F 49% 29.83 in 10.0 mi SSW 12.7 mph 19.6 mph N/A   Clear
7:15 PM 83.8 °F 85.1 °F 64.2 °F 51% 29.83 in 10.0 mi SSW 11.5 mph - N/A   Clear
7:35 PM 82.4 °F 83.9 °F 64.2 °F 54% 29.83 in 10.0 mi SSW 11.5 mph - N/A   Clear
7:55 PM 80.6 °F 82.2 °F 64.2 °F 57% 29.83 in 10.0 mi SSW 10.4 mph - N/A   Clear
8:15 PM 79.2 °F - 64.0 °F 60% 29.84 in 10.0 mi SSW 11.5 mph - N/A   Clear
8:35 PM 78.6 °F - 64.0 °F 61% 29.84 in 10.0 mi SSW 10.4 mph - N/A   Clear
8:55 PM 78.1 °F - 63.9 °F 61% 29.85 in 10.0 mi SSW 11.5 mph - N/A   Clear
9:15 PM 77.9 °F - 63.5 °F 61% 29.85 in 10.0 mi SSW 11.5 mph - N/A   Clear
9:35 PM 77.2 °F - 63.5 °F 63% 29.86 in 10.0 mi SSW 9.2 mph - N/A   Clear
9:55 PM 77.2 °F - 62.8 °F 61% 29.87 in 10.0 mi SSW 11.5 mph - N/A   Clear
10:15 PM 77.4 °F - 62.4 °F 60% 29.87 in 10.0 mi SSW 12.7 mph - N/A   Clear
10:35 PM 77.0 °F - 61.9 °F 59% 29.88 in 10.0 mi SSW 12.7 mph 19.6 mph N/A   Clear
10:55 PM 75.7 °F - 61.3 °F 61% 29.88 in 10.0 mi SSW 11.5 mph - N/A   Clear
11:15 PM 75.9 °F - 60.4 °F 59% 29.88 in 10.0 mi SSW 12.7 mph - N/A   Clear
11:35 PM 75.6 °F - 60.3 °F 59% 29.88 in 10.0 mi SSW 11.5 mph - N/A   Clear
11:55 PM 75.2 °F - 60.1 °F 59% 29.88 in 10.0 mi SSW 9.2 mph - N/A   Clear